Regional Weather Roundup
Issued by NWS

Home | Current Version | Previous Version | Graphics & Text | Print | Product List | Glossary On
Versions: 1 2 3 4 5 6 7 8 9 10 11 12 13 14 15 16 17 18 19 20 21 22 23 24 25 26 27 28 29 30 31 32 33 34 35 36 37 38 39 40 41 42 43 44 45 46 47 48 49 50
000
ASUS43 KMPX 302010
RWRMN
WEATHER ROUNDUP FOR MINNESOTA
NATIONAL WEATHER SERVICE TWIN CITIES/CHANHASSEN MN
300 PM CDT THU JUL 30 2015


NOTE: "FAIR" INDICATES FEW OR NO CLOUDS BELOW 12,000 FEET WITH NO
SIGNIFICANT WEATHER AND/OR OBSTRUCTIONS TO VISIBILITY. N/A MEANS
CURRENT SKY AND/OR WEATHER CONDITIONS ARE NOT AVAILABLE.

MNZ060>063-068>070-302100-
   Twin Cities Metro

CITY           SKY/WX    TMP DP  RH WIND       PRES   REMARKS
TWIN CITIES    SUNNY     84  56  38 W18G28    30.05S
ST PAUL        SUNNY     84  56  38 W17G26    30.04S
CRYSTAL        SUNNY     84  56  38 NW14G24   30.04S
BLAINE         MOSUNNY   84  55  37 W18G24    30.04S
LAKEVILLE      SUNNY     81  57  44 W10G21    30.07S
EDEN PRAIRIE   SUNNY     84  59  42 W14G21    30.05F
SOUTH ST PAUL  SUNNY     84  53  33 W12G24    30.04S
LAKE ELMO      FAIR      81  59  47 W13G22    30.05S
$$
MNZ001>005-007-008-013>017-022>024-027-028-302100-
   Northwest Minnesota

CITY           SKY/WX    TMP DP  RH WIND       PRES   REMARKS
BEMIDJI        MOSUNNY   80  53  39 W21G36    29.99S
HALLOCK        MOSUNNY   81  48  32 W18G26    29.95F
ROSEAU         SUNNY     79  59  50 NW14G22   29.93S
WARROAD        MOSUNNY   79  59  50 W16G22    29.92S
THIEF RVR FALL MOSUNNY   79  54  41 W17G24    29.99S
CROOKSTON      SUNNY     81  54  39 NW21G29   30.00S
FOSSTON        MOSUNNY   79  50  36 W18G28    30.01S
DETROIT LAKES  SUNNY     79  52  38 W17G29    30.06S
MOORHEAD       SUNNY     81  59  47 W14G22    30.04F
PARK RAPIDS    MOSUNNY   82  52  35 W22G41    30.02S
MAHNOMEN       MOCLDY    78  58  51 W14G25    30.02S
$$
MNZ006-009>011-018-025>026-302100-
   North Central Minnesota

CITY           SKY/WX    TMP DP  RH WIND       PRES   REMARKS
BAUDETTE       MOSUNNY   79  56  45 W18G26    29.91F
FLAG ISLAND    MOSUNNY   77  55  47 W21G28    29.87S
INTL FALLS     MOSUNNY   78  57  48 W17G25    29.89F
WASKISH        SUNNY     79  61  53 W14       29.94S
BIG FORK       MOSUNNY   79  55  44 W8G20     29.94F
LONGVILLE      MOSUNNY   79  54  41 W15       29.99F
GRAND RAPIDS   SUNNY     79  52  38 W14G22    29.97F
ORR            MOSUNNY   79  54  41 W13G18    29.89S
COOK           SUNNY     77  57  50 W13G20    29.91F
WALKER         FAIR      76  53  46 W13G22    30.00S
$$
MNZ012-019>021-037-302100-
   Northeast Minnesota

CITY           SKY/WX    TMP DP  RH WIND       PRES   REMARKS
DULUTH         MOSUNNY   81  53  37 NW15G25   29.94F
ELY            MOSUNNY   75  55  50 W10G22    29.90S
HIBBING        MOSUNNY   79  51  37 W17G28    29.94S
EVELETH        MOSUNNY   79  50  36 W26G35    29.94R
DULUTH HARBOR  SUNNY     81  57  44 W21G29    29.92S
TWO HARBORS    MOSUNNY   81  63  54 W7        29.90S
SILVER BAY     MOSUNNY   73  59  60 CALM      29.91R
GRAND MARAIS     N/A     54  46  74 SW9       29.85S
G MARAIS ARPRT PTSUNNY   72  48  43 W10G23    29.90F
$$
MNZ029>031-032-039>041-046>048-054>057-064-302100-
   West Central Minnesota

CITY           SKY/WX    TMP DP  RH WIND       PRES   REMARKS
FERGUS FALLS   SUNNY     81  57  44 W15       30.05S
WHEATON        SUNNY     81  61  50 W8        30.09F
MORRIS         SUNNY     82  61  47 W8        30.08S
ALEXANDRIA     SUNNY     81  57  43 W15       30.09F
ELBOW LAKE     FAIR      80  60  51 W13       30.07F
WADENA         MOSUNNY   81  54  39 W13G26    30.05S
GLENWOOD       SUNNY     81  57  44 W12G17    30.09F
APPLETON       SUNNY     84  55  37 W9        30.08F
BENSON         SUNNY     82  55  39 NW8       30.09S
ORTONVILLE     SUNNY     84  54  34 W10       30.08F
MADISON        SUNNY     84  52  32 W9        30.09F
WILLMAR        FAIR      82  57  42 W10       30.10F
$$
MNZ033>034-036-042>043-049>051-058-059-302100-
   Central Minnesota

CITY           SKY/WX    TMP DP  RH WIND       PRES   REMARKS
ST CLOUD       SUNNY     83  56  39 W14G20    30.05S
SAUK CENTRE    FAIR      79  57  45 W15G23    30.08S
PAYNESVILLE    SUNNY     80  52  37 W12G17    30.09S
AITKIN         SUNNY     81  54  39 W6G26     29.98S
PINE RIVER     MOSUNNY   81  55  41 W14G28    30.03F
BRAINERD       SUNNY     81  52  36 NW18      30.02S
STAPLES        MOSUNNY   81  52  36 W14G24    30.04S
LONG PRAIRIE   FAIR      79  55  44 SW14      30.07S
LITTLE FALLS   SUNNY     81  50  34 W15G21    30.04F
LITCHFIELD     SUNNY     82  55  39 W10G17    30.08F
BUFFALO        SUNNY     82  54  38 W14       30.07S
MAPLE LAKE     SUNNY     82  57  42 NW13      30.07S
$$
MNZ037-044-045-052-053-302100-
   East Central Minnesota

CITY           SKY/WX    TMP DP  RH WIND       PRES   REMARKS
PRINCETON      SUNNY     84  57  39 W12       30.04S
MORA           SUNNY     79  54  41 W12G20    30.02F
CAMBRIDGE      SUNNY     84  61  45 W10G23    30.01S
RUSH CITY      PTSUNNY   82  56  41 W15G22    30.02S
MOOSE LAKE     MOSUNNY   79  54  41 W13G22    29.96F
HINCKLEY       MOCLDY    81  55  41 W13G28    30.00S
CLOQUET        MOSUNNY   82  48  30 W13G26    29.96S
MCGREGOR       MOSUNNY   81  52  36 W12G22    29.99S
$$
MNZ071>073-080-081-089-090-097-098-302100-
   Southwest Minnesota

CITY           SKY/WX    TMP DP  RH WIND       PRES   REMARKS
MONTEVIDEO     SUNNY     86  61  42 W7        30.11S
GRANITE FALLS  SUNNY     82  59  44 SW6       30.11F
CANBY          SUNNY     85  51  30 NW8       30.12S
MARSHALL       SUNNY     84  52  32 NW10      30.13S
REDWOOD FALLS  SUNNY     84  56  38 NW12G18   30.10F
OLIVIA         SUNNY     79  55  44 NW10      30.09F
PIPESTONE      SUNNY     82  57  42 W7        30.15F
WINDOM         SUNNY     82  55  39 W5        30.14S
WORTHINGTON    SUNNY     82  59  44 W6        30.15S
JACKSON        SUNNY     84  59  42 W8        30.15S
TRACY          SUNNY     84  55  37 W3        30.13F
SLAYTON        SUNNY     84  52  32 W3        30.15F
$$
MNZ065>067-074>077-082>085-091>093-302100-
   South Central Minnesota

CITY           SKY/WX    TMP DP  RH WIND       PRES   REMARKS
MANKATO        SUNNY     82  55  39 NW13G20   30.10S
NEW ULM        SUNNY     82  54  36 NW8       30.10F
ST JAMES       SUNNY     84  57  39 W9        30.12F
FAIRMONT       SUNNY     82  55  39 NW10      30.12F
GLENCOE        SUNNY     82  61  48 W13G21    30.08S
FARIBAULT      SUNNY     81  61  50 W14       30.09S
OWATONNA       SUNNY     82  57  42 W12       30.10S
WASECA         SUNNY     79  55  44 NW12      30.11F
ALBERT LEA     SUNNY     82  55  39 NW5       30.11F
$$
MNZ078>079-086>088-094>096-302100-
   Southeast Minnesota

CITY           SKY/WX    TMP DP  RH WIND       PRES   REMARKS
ROCHESTER      SUNNY     80  58  46 NW14G24   30.10S
RED WING       SUNNY     84  52  32 NW13G20   30.03S
STANTON        SUNNY     83  57  41 W12G17    30.06S
DODGE CENTER   SUNNY     81  55  41 NW12      30.10F
WINONA         SUNNY     82  54  36 NW13G21   30.05S
AUSTIN         SUNNY     84  52  32 NW13G22   30.10F
PRESTON        SUNNY     80  55  42 NW18      30.10S
$$
ABBREVIATIONS USED IN REMARKS
   TC - TEMPERATURES IN CELSIUS
  WCI - WIND CHILL INDEX
   HX - HEAT INDEX
  VSB - VISIBILITY
$$



USA.gov is the U.S. government's official web portal to all federal, state and local government web resources and services.